www.pogodaiklimat.ru

Погода и климат >> Архив погоды >> Россия >> Коми >> Усинск


ПОГОДА в Усинске

  • Прогноз погоды в Усинске
  • Монитор погоды в Усинске

АРХИВ ПОГОДЫ в Усинске

Время (UTC), дата Ветер
(напр.,м/с)
 
Видим.   Явления Облачность Т
(С)
Тd
(С)
f
(%)
Тe
(С)
Тes
(С)
Комфортность P
(гПа)
Po
(гПа)
Тmin
(С)
Tmax
(С)
R
(мм)
R24
(мм)
S
(см)
12 11.09 Ю 3 н/о н/о +14.5 +10.7 78 +14 +14 1019.2 1009.9
15 11.09 З 2 н/о н/о +12.2 +10.7 91 +11 +11 1019.0 1009.7
18 11.09 З 2 н/о н/о +9.7 +8.6 93 +8 +8 1020.1 1010.7 +15.3
21 11.09 ЮЗ 2 н/о н/о +8.9 +8.1 95 +7 +7 1020.2 1010.8
00 12.09 ЮЗ 2 н/о н/о +8.3 +7.5 95 +6 +6 1020.6 1011.1
03 12.09 ЮЗ 2 н/о н/о +8.1 +7.3 95 +6 +6 1020.9 1011.4 +7.4
06 12.09 Ю 3 н/о н/о +10.3 +9.5 95 +8 +8 1020.1 1010.7 +7.4
12 12.09 ЮЗ 2 н/о н/о +12.1 +10.5 90 +11 +11 1017.9 1008.6
15 12.09 Ю 5 н/о н/о +12.3 +11.4 94 +10 +10 1014.5 1005.2
18 12.09 ЮВ 4 н/о н/о +11.8 +10.6 92 +10 +10 1012.2 1003.0 +12.3
21 12.09 ЮЗ 2 н/о н/о +11.8 +10.8 94 +11 +11 1010.3 1001.0
00 13.09 Ю 1 н/о н/о +10.8 +9.8 94 +10 +10 1009.4 1000.1
03 13.09 ЮВ 2 н/о н/о +10.7 +9.8 94 +9 +9 1008.7 999.4 +10.2
06 13.09 Ю 2 н/о н/о +14.0 +11.7 86 +13 +13 1007.9 998.7 +10.2
09 13.09 ЮЗ 2 н/о н/о +16.7 +12.6 77 +17 +17 1007.4 998.4
12 13.09 ЮЗ 2 н/о н/о +15.1 +12.8 86 +15 +15 1007.1 998.0
15 13.09 ЮВ 1 н/о н/о +12.8 +11.5 92 +13 +13 1006.8 997.6
18 13.09 ЮВ 2 н/о н/о +11.7 +10.2 91 +11 +11 1005.9 996.7 +16.9
21 13.09 ЮВ 2 н/о н/о +9.8 +8.8 93 +8 +8 1005.1 995.8
00 14.09 ЮВ 2 н/о н/о +9.8 +8.9 94 +8 +8 1004.5 995.2
03 14.09 ЮВ 2 н/о н/о +9.8 +9.0 95 +8 +8 1004.4 995.2 +8.6
06 14.09 ЮВ 2 н/о н/о +11.3 +10.3 94 +10 +10 1004.0 994.8 +8.6
09 14.09 ЮВ 3 н/о н/о +12.6 +11.4 92 +11 +11 1004.1 994.9
12 14.09 В 2 н/о н/о +14.3 +10.9 80 +14 +14 1003.2 994.1
15 14.09 В 2 н/о н/о +11.8 +10.3 91 +11 +11 1002.7 993.5
18 14.09 В 2 н/о н/о +8.9 +8.0 94 +7 +7 1000.9 991.6 +14.5
21 14.09 В 4 н/о н/о +11.3 +9.6 89 +9 +9 998.2 989.0
00 15.09 В 3 н/о н/о +11.3 +10.2 93 +9 +9 995.3 986.1
03 15.09 ЮВ 5 н/о н/о +12.2 +10.2 88 +10 +10 994.5 985.5 +8.8
06 15.09 ЮВ 6-10
{12}
н/о н/о +11.1 +5.5 68 +8 +8 995.2 986.1 +8.8
09 15.09 Ю 5
{13}
н/о н/о +11.0 +5.5 69 +8 +8 994.8 985.7
12 15.09 Ю 8-12
{15}
н/о н/о +10.8 +2.9 58 +7 +7 994.9 985.8
15 15.09 ЮВ 6-11
{14}
н/о н/о +10.3 +2.6 59 +7 +7 993.8 984.6
18 15.09 ЮВ 6
{12}
н/о н/о +8.7 +2.8 66 +5 +5 992.4 983.2 +12.0
21 15.09 ЮВ 6-11
{13}
н/о н/о +8.3 +3.5 72 +4 +4 990.6 981.4
00 16.09 ЮВ 7-11
{12}
н/о н/о +7.5 +3.6 76 +3 +3 989.6 980.4
03 16.09 ЮВ 7-12
{12}
н/о н/о +6.4 +4.3 86 +1 +1 988.7 979.5 +6.3
06 16.09 ЮВ 6
{13}
н/о н/о +6.3 +4.5 88 +2 +2 988.4 979.2 +6.1
09 16.09 Ю 5
{11}
н/о н/о +6.3 +4.7 89 +2 +2 989.4 980.1
12 16.09 Ю 5-10
{13}
н/о н/о +6.6 +5.1 90 +2 +2 990.4 981.2
15 16.09 ЮВ 3
{12}
н/о н/о +6.6 +5.1 90 +3 +3 991.5 982.2
18 16.09 ЮВ 2 н/о н/о +5.1 +3.6 90 +2 +2 991.4 982.1 +6.9
21 16.09 ЮВ 2 н/о н/о +5.0 +3.0 87 +2 +2 991.1 981.8
00 17.09 ЮВ 2 н/о н/о +4.4 +2.4 87 +2 +2 990.6 981.3
06 17.09 ЮВ 3 н/о н/о +6.6 +4.6 87 +3 +3 989.7 980.5 +4.4
09 17.09 Ю 4 н/о н/о +8.6 +5.6 81 +6 +6 989.8 980.6
12 17.09 Ю 2 н/о н/о +8.4 +6.0 85 +7 +7 990.4 981.2
15 17.09 ЮВ 2 н/о н/о +7.8 +5.9 88 +6 +6 990.7 981.4
21 17.09 ЮВ 2 н/о н/о +6.7 +5.5 92 +4 +4 990.2 981.0

 

Местоположение метеостанции Усинск (Коми, Россия): широта 66.03 долгота 57.37 высота над уровнем моря 79 м.

В архиве по умолчанию представлена погода в Усинске за последнюю неделю. Архивные данные за месяц целиком и за предыдущие месяцы, начиная с января 2011 года, Вы можете получить, выбрав интересующий диапазон дат из раскрывающегося списка и нажав кнопку "Ввод!".


*Определитесь, кто Вы:
робот инопланетянин человек

Внимание! Время в таблицах - всемирное. Для получения местного времени необходимо прибавить поправку, которая равна 3 ч.

Смотрите также архив погоды в соседних городах и на ближайших метеорологических станциях:

Погода в Усть-Усе (Коми, Россия) (21 км)
Погода в Мутном Материке (Коми, Россия) (100 км)
Погода в Печоре (Коми, Россия) (102 км)
Погода в Харуте (Ненецкий АО, Россия) (132 км)
Погода в Хорей-Вере (Ненецкий АО, Россия) (158 км)
Погода в Петруни (Коми, Россия) (159 км)
Погода в Ираеле (Коми, Россия) (191 км)
Погода в Ижме (Коми, Россия) (196 км)
Погода в Усть-Щугоре (Коми, Россия) (196 км)
Погода в Окуневом Носу (Коми, Россия) (217 км)

Пояснения к столбцам:

Ветер - указаны скорость ветра в м/с - средняя за 10 мин, порывы в срок и между сроками (в фигурных скобках) и направление, откуда дует ветер: С - северный, СВ - северо-восточный, В - восточный, ЮВ - юго-восточный, Ю - южный, ЮЗ - юго-западный, З - западный, СЗ - северо-западный.
Видимость - горизонтальная дальность видимости в метрах или километрах. При видимости от 1 до 10 км при отсутствии осадков обычно наблюдается дымка, при ухудшении видимости до 1 км и менее - туман. В сухую погоду видимость может ухудшаться дымом, пылью или мглою.
Явления - указаны атмосферные явления, наблюдавшиеся в срок или в последний час перед сроком; фигурными скобками обозначены явления, наблюдавшиеся между сроками (за 1-3 часа до срока); квадратными скобками обозначены град или гололедные отложения с указанием их диаметра в мм.
Облачность - указаны через наклонную черту общая и нижняя облачность в баллах и высота нижней границы облаков в метрах; квадратными скобками обозначены формы облаков: Ci - перистые, Cs - перисто-слоистые, Cc - перисто-кучевые, Ac - высококучевые, As - высокослоистые, Sc - слоисто-кучевые, Ns - слоисто-дождевые, Cu - кучевые, Cb - кучево-дождевые. Подробнее классификацию облаков см. в Атласе облаков (PDF).
T - Температура воздуха - температура, измеренная на высоте 2 м над землей.
Td - Температура точки росы - температура, при понижении до которой содержащийся в воздухе водяной пар достигнет насыщения.
f - Относительная влажность воздуха - влажноcть воздуха, измеренная на высоте 2 м над землей.
Te - Эффективная температура - температура, которую ощущает одетый по сезону человек в тени. Характеристика душности погоды. При расчете учитывается влияние влажности воздуха и скорости ветра на теплоощущения человека.
Tes - Эффективная температура на солнце - температура, которую ощущает человек, с поправкой на солнечный нагрев. Характеристика знойности погоды. Зависит от высоты солнца над горизонтом, облачности и скорости ветра. Ночью, в пасмурную погоду, а также при ветре 12 м/с и более поправка равна нулю.
P - Атмосферное давление - приведенное к уровню моря атмосферное давление.
Po - Атмосферное давление - измеренное на уровне метеостанции атмосферное давление.
Tmin - Минимальная температура - минимум температуры воздуха на высоте 2 м над землей.
Tmax - Максимальная температура - максимум температуры воздуха на высоте 2 м над землей.
R - Количество осадков - Количество выпавших осадков за период времени, мм. При наведении курсора мыши на число - период времени, за который выпало указанное количество осадков.
R24 - Количество осадков - Количество выпавших осадков за 24 часа, мм.
S - Снежный покров - Высота снежного покрова, см. При наведении курсора мыши на число - состояние снежного покрова и степень покрытия местности в баллах.